GFSNGP_sfc_temp_138.txt.gz
Temp
46 49 49 48 48 50 47 48 38 43 45 52 57 58 54 55 56 51 48 47 50 51 49 48 47 46 45 44 43 42 38 35 35 36 36 36 36 36 35 35 34 33 33 33
40 47 47 44 48 49 49 50 49 50 48 60 62 63 59 58 57 52 49 52 52 50 48 47 45 43 41 40 39 38 34 30 30 33 32 31 33 32 33 33 32 30 29 30
32 43 43 34 43 47 49 53 51 41 51 58 57 56 55 54 55 52 47 49 48 46 43 42 41 40 37 37 37 34 31 31 29 29 28 27 31 31 29 29 29 28 27 27
33 36 23 42 54 53 50 52 54 54 55 57 57 55 55 54 54 49 49 46 42 39 39 38 38 37 36 35 33 31 29 28 30 28 25 29 26 29 27 29 28 27 26 25
30 31 38 43 47 44 42 44 54 52 54 57 57 50 45 49 44 40 37 35 35 35 35 34 33 34 33 32 32 30 27 26 26 24 24 26 24 27 28 29 28 27 26 24
34 27 23 38 51 58 54 36 54 54 53 51 50 39 37 40 37 33 33 33 32 33 33 32 32 34 29 28 27 25 26 27 28 27 25 25 28 27 29 30 28 29 26 25
32 29 35 49 53 56 34 36 51 52 50 49 42 36 34 34 33 33 33 32 33 32 31 32 34 33 29 27 26 26 27 28 28 31 30 30 30 30 30 29 29 26 27 25
33 27 25 51 50 40 43 48 49 49 49 36 33 32 31 31 31 32 32 33 34 32 31 32 33 31 28 26 28 30 28 28 28 29 31 31 30 30 29 28 26 26 26 24
38 37 48 49 46 46 51 48 50 49 42 36 32 31 31 30 31 32 33 33 35 33 31 32 34 33 28 28 31 31 30 28 28 31 31 30 28 27 27 28 27 26 23 21
39 45 49 51 53 51 50 49 50 49 40 35 32 32 31 31 31 32 34 34 35 33 32 32 36 36 33 34 34 32 31 31 31 29 28 29 29 26 23 22 22 22 22 18
38 45 43 41 48 52 49 47 45 45 40 34 33 32 32 31 32 33 34 34 35 34 34 36 38 36 37 37 36 34 33 32 31 30 27 25 24 25 23 21 22 19 18 19
36 46 43 46 49 52 47 44 44 40 35 36 36 33 33 32 33 34 33 35 35 35 37 38 38 37 38 39 37 34 33 32 31 31 30 26 24 21 26 25 25 25 25 22
44 49 45 44 49 52 46 43 43 42 38 35 36 35 35 32 33 34 34 35 35 36 37 37 35 32 32 29 29 29 28 29 29 29 28 27 27 23 18 22 25 25 24 24
51 48 40 44 42 46 46 44 44 42 40 37 36 36 35 33 34 34 34 36 38 37 37 36 33 30 32 32 31 28 29 29 29 28 28 27 26 26 25 21 20 19 23 23
48 49 47 47 46 45 45 43 39 36 36 35 36 34 34 32 33 34 37 37 37 36 35 33 31 29 31 30 29 28 30 28 27 26 26 26 27 26 25 24 22 19 17 17
47 47 44 42 42 42 42 40 36 34 34 33 33 34 34 35 36 36 36 36 34 32 33 28 27 26 28 29 28 27 26 26 27 27 26 26 25 24 24 22 21 17 13 11
40 37 39 38 38 39 39 40 37 34 34 34 34 35 36 36 35 34 34 31 27 27 27 26 25 26 27 28 30 28 26 27 26 27 26 25 24 22 22 20 19 17 11 10
45 43 43 41 38 37 37 37 35 35 34 35 34 33 31 30 30 27 26 26 26 25 26 26 26 26 27 28 30 29 27 27 27 26 26 23 23 23 21 19 18 17 15 11
44 42 41 39 38 38 36 35 34 34 33 32 31 29 30 28 27 26 26 25 24 23 23 25 27 26 27 27 29 28 27 26 26 24 22 19 20 20 18 17 16 15 15 13
40 39 38 37 36 35 33 33 33 31 31 30 29 27 26 25 25 24 25 24 26 27 26 26 27 27 26 26 27 27 26 25 24 22 21 20 18 15 11 9 14 14 13 12
34 34 33 32 32 32 33 33 31 29 29 29 27 27 26 25 24 25 24 24 24 26 26 26 27 26 26 26 27 25 24 22 20 18 18 15 15 16 15 14 13 12 11 10
32 32 32 32 31 31 32 32 31 30 29 28 28 26 24 24 24 25 27 26 25 25 26 26 26 25 24 24 25 23 22 22 20 19 18 17 16 14 13 12 11 11 10 10
33 32 32 31 31 31 31 31 30 30 28 28 26 25 25 26 26 25 23 26 26 25 26 26 22 20 20 24 23 21 21 19 18 17 16 15 15 14 13 11 10 9 8 7
31 31 31 31 31 29 28 29 31 30 29 28 27 26 27 26 27 30 29 26 25 25 24 19 19 20 20 22 21 20 18 18 17 16 15 11 13 11 11 8 8 9 6 -0
32 31 31 30 30 30 31 31 30 29 29 29 28 28 30 31 28 27 26 25 24 22 19 17 18 18 21 21 20 18 18 17 17 15 12 12 11 10 9 8 5 6 5 4
33 32 32 34 35 34 32 32 30 29 29 27 27 29 29 29 28 26 25 24 23 20 18 16 17 18 20 19 18 17 17 13 13 13 12 12 11 10 8 7 6 4 4 5
35 35 34 34 36 35 33 32 31 29 30 29 27 29 29 29 26 25 23 22 22 19 17 17 17 18 19 17 17 16 16 12 11 12 11 11 10 9 7 6 6 6 5 2

GFSNGP_sfc_temp_141.txt.gz
Temp
42 44 44 44 44 44 41 42 35 39 39 45 48 48 50 52 49 47 46 45 45 43 43 42 41 41 40 38 36 35 32 30 29 30 30 31 30 30 30 29 29 29 29 28
35 43 44 40 44 44 44 44 44 45 42 49 51 49 50 51 48 45 44 45 44 45 44 43 40 37 37 34 34 33 28 26 25 29 28 26 27 27 28 28 26 26 26 26
28 38 37 30 38 41 43 45 43 32 41 48 47 48 46 45 48 46 44 44 45 44 40 37 35 36 34 33 32 29 27 27 25 24 24 19 25 26 22 21 22 23 21 22
26 29 18 36 46 47 44 46 46 46 46 48 46 42 38 38 41 45 44 42 37 35 34 33 33 34 32 31 29 27 24 24 27 23 18 22 17 15 16 17 15 15 20 20
25 25 32 37 40 36 35 37 46 44 45 46 43 40 33 35 34 36 35 33 31 31 31 31 32 32 30 28 27 26 20 19 17 17 15 16 14 15 16 20 20 22 15 17
26 21 12 35 45 50 47 30 44 44 42 41 40 28 33 34 33 32 31 32 31 31 30 31 31 31 27 25 24 21 21 21 22 20 18 16 16 19 20 20 22 24 21 20
28 25 29 43 46 50 29 31 41 43 41 39 32 32 34 32 31 32 31 31 31 29 29 30 30 29 25 23 21 20 25 26 24 28 26 22 22 22 22 22 25 22 20 19
27 24 22 45 44 35 36 40 42 42 39 33 33 32 31 31 30 30 30 31 31 30 28 30 29 27 24 23 24 26 25 26 25 24 29 28 26 24 26 24 22 20 19 18
31 28 39 42 39 43 44 41 43 40 36 34 32 30 30 29 30 30 31 31 32 30 30 30 31 29 23 24 28 28 28 26 23 28 27 24 22 21 21 22 21 19 16 14
33 37 41 42 41 42 42 40 40 38 35 33 32 31 30 29 29 30 32 30 31 30 30 29 31 31 28 29 30 28 28 27 26 25 25 24 23 22 20 18 17 18 16 13
32 38 39 42 42 41 42 43 40 37 34 32 32 31 30 30 30 31 30 32 31 30 29 30 33 31 33 32 32 29 28 27 26 25 23 22 21 20 21 14 18 15 11 10
30 37 37 38 41 44 41 39 37 34 33 34 33 31 32 30 31 32 32 32 31 31 31 32 33 31 33 33 32 29 28 27 26 24 23 22 21 20 26 25 26 26 25 20
39 44 40 39 41 42 39 38 37 35 36 33 33 33 33 31 31 32 31 32 31 31 32 29 28 27 27 27 26 24 22 24 24 25 23 21 19 19 16 22 26 25 25 26
45 42 34 39 33 40 40 40 41 38 37 35 35 35 33 31 32 32 31 32 34 34 31 30 28 27 28 29 29 24 25 26 24 22 21 22 22 20 18 17 14 12 21 22
44 43 40 41 40 39 40 37 34 32 34 33 34 32 32 30 30 30 33 35 35 33 30 29 28 27 28 28 27 25 26 22 21 20 22 22 24 23 22 20 15 12 13 14
42 41 39 37 37 37 37 34 32 31 32 31 31 31 32 32 31 31 32 32 31 28 29 26 24 23 25 26 25 25 24 24 23 23 22 22 22 21 20 18 13 11 9 6
35 33 34 33 34 36 35 35 33 32 31 31 31 32 32 31 31 30 29 28 26 25 25 24 22 23 24 24 26 25 23 24 24 24 23 23 21 19 19 16 12 10 6 2
40 38 38 37 34 34 33 33 32 32 31 32 32 28 27 28 26 22 22 23 23 22 22 23 22 22 22 24 27 25 24 24 25 23 23 21 21 20 18 16 14 10 6 4
40 38 37 36 35 34 32 31 31 31 31 30 27 26 26 24 24 22 23 22 21 20 19 21 26 23 24 24 27 26 24 23 23 22 21 18 17 17 14 12 9 7 8 7
35 35 35 34 34 33 30 30 31 30 30 28 27 25 24 23 24 23 23 21 22 22 23 23 25 24 24 24 25 25 23 21 21 18 17 16 11 7 6 8 8 5 2 1
33 32 31 31 31 32 32 31 30 28 26 27 25 23 23 22 23 23 22 22 22 23 24 23 24 23 23 22 23 21 20 17 16 15 13 12 12 10 3 1 3 2 -3 -3
31 30 30 30 30 30 30 30 28 26 25 24 24 24 22 21 21 22 22 23 23 23 24 24 23 21 21 21 22 19 19 18 16 15 12 10 8 6 2 1 -0 -5 -6 -7
30 31 30 30 30 30 29 27 25 25 24 23 22 22 22 23 23 21 21 24 24 23 24 21 21 20 19 17 19 17 16 15 13 12 6 5 6 5 3 -1 -4 -4 -6 -6
30 30 30 30 29 29 27 28 28 28 22 22 21 23 24 22 22 26 24 23 21 23 20 17 18 19 17 19 17 15 13 11 9 8 7 6 4 4 2 -3 -5 -6 -10 -8
30 29 29 28 29 28 29 29 28 28 27 25 25 25 26 26 23 24 23 22 22 19 18 16 18 18 18 17 15 14 12 13 11 9 6 4 -1 -4 -3 -6 -9 -9 -10 -10
30 30 30 31 30 30 29 29 27 27 26 24 23 23 24 23 24 23 22 21 18 17 15 16 16 16 15 15 14 13 12 10 11 8 4 0 -1 -3 -4 -3 -10 -10 -12 -12
31 30 30 30 32 31 30 29 27 26 27 26 25 26 25 24 22 22 21 20 16 15 14 14 14 13 14 14 12 12 10 7 6 3 -2 -1 -4 -6 -7 -6 -7 -10 -11 -11

GFSNGP_sfc_temp_144.txt.gz
Temp
41 42 43 39 39 41 39 39 31 36 37 43 46 47 48 49 46 45 45 43 43 42 41 41 39 39 38 35 35 34 32 30 29 30 30 30 29 28 28 27 27 27 27 28
33 41 41 38 41 41 42 42 41 42 39 46 49 49 46 46 45 44 45 43 43 42 41 39 38 35 34 32 31 32 29 26 26 29 27 26 26 25 26 25 24 22 23 24
28 37 36 30 36 40 41 43 41 32 41 45 44 43 40 40 44 44 44 43 42 41 40 36 35 34 32 32 32 29 28 27 23 23 23 19 25 24 20 16 18 19 15 16
27 29 20 35 44 44 41 43 43 43 42 44 43 36 35 35 36 42 42 41 41 38 34 33 33 32 31 31 29 27 25 24 25 23 20 22 17 15 11 10 8 7 10 14
24 25 30 35 38 36 35 36 42 40 41 40 37 36 33 35 35 34 33 32 31 31 31 32 32 32 30 28 26 26 21 21 21 22 20 20 14 16 14 14 14 9 7 11
23 21 13 33 43 47 43 28 42 42 39 38 37 27 29 34 33 29 29 30 31 32 31 31 30 31 28 26 24 23 23 24 24 22 19 18 16 14 19 20 15 14 16 15
25 21 27 37 44 48 28 31 41 42 41 39 34 33 33 32 31 29 30 31 31 30 29 29 30 28 25 25 23 25 26 26 26 27 24 21 19 16 23 22 20 11 12 12
24 21 20 41 41 32 36 39 41 41 41 38 33 32 31 31 30 30 29 29 30 29 27 26 27 27 24 23 25 27 25 25 26 25 27 25 19 20 19 18 16 10 10 13
29 27 37 40 39 41 40 40 41 40 37 35 32 31 30 30 30 30 30 29 29 28 27 27 28 28 24 25 28 28 28 26 25 25 25 23 17 14 18 19 16 15 14 9
30 34 37 39 42 42 41 40 39 38 34 34 32 31 30 30 30 30 30 30 29 30 28 27 29 29 28 28 29 28 28 26 26 23 21 21 22 20 17 15 15 17 15 11
28 34 37 39 39 42 42 41 38 35 32 32 32 31 30 30 30 31 31 30 29 29 29 28 29 29 29 30 29 28 27 27 26 25 23 20 18 17 18 10 17 13 8 9
26 36 36 36 41 43 41 38 37 33 28 29 33 30 32 30 31 31 29 29 28 29 29 30 30 29 30 30 30 28 27 26 23 22 21 21 20 19 26 25 26 25 25 21
35 41 40 41 42 43 41 37 35 34 31 30 32 32 32 31 31 32 31 30 29 29 30 31 30 29 30 30 29 26 24 24 23 22 19 18 18 18 16 22 26 25 25 26
40 40 36 38 36 40 38 36 38 36 35 33 34 34 32 30 32 31 30 31 32 31 30 30 28 28 30 30 29 25 25 24 23 21 20 18 17 18 18 16 11 12 20 22
40 42 40 40 39 37 36 34 32 30 30 32 34 32 31 30 30 30 32 33 32 30 29 29 27 26 28 29 27 26 26 22 22 21 22 22 22 20 19 17 14 12 13 14
40 39 36 35 35 34 33 32 30 29 30 32 31 31 31 31 31 31 32 31 28 26 28 25 25 23 25 27 26 25 24 22 23 23 23 23 22 21 19 16 13 11 10 8
33 31 32 32 32 32 32 32 31 30 30 31 31 30 30 30 30 30 30 29 26 25 24 24 22 23 23 25 27 25 24 24 23 23 23 22 21 19 17 14 12 11 8 4
41 39 37 35 33 32 31 32 31 31 30 31 30 28 26 27 26 23 22 22 23 22 21 23 23 23 22 23 25 25 24 24 24 22 23 21 21 20 17 14 13 11 9 4
38 36 35 35 33 32 32 31 30 30 28 27 26 23 23 23 22 21 22 21 20 20 18 22 25 23 24 24 25 24 23 23 22 21 21 19 18 18 15 14 12 10 9 8
34 34 34 32 32 32 30 28 26 25 28 26 22 20 20 20 21 20 21 21 22 23 22 24 24 25 24 26 25 24 22 20 21 18 18 16 13 12 13 12 10 7 5 3
31 32 30 32 31 31 31 30 30 28 27 24 23 20 20 19 21 21 20 21 20 23 24 23 24 23 23 22 24 21 20 19 18 17 16 13 9 10 10 10 8 4 -1 -3
31 31 30 30 30 29 30 30 28 25 21 18 20 21 21 21 21 20 20 23 22 22 23 23 22 20 21 21 22 19 18 18 17 16 14 14 12 8 3 2 2 -1 -2 -4
29 29 30 29 29 29 28 27 25 22 20 20 19 20 21 23 23 21 20 23 23 22 23 21 20 19 19 19 19 18 18 17 15 14 12 11 10 9 7 6 4 0 -3 -2
26 30 29 29 29 28 26 26 26 23 18 19 18 19 22 21 17 24 23 21 20 21 21 18 20 19 17 17 17 17 16 16 14 12 10 9 9 7 5 4 2 -1 -5 -7
30 29 29 28 29 28 29 28 28 27 25 24 23 23 24 24 19 19 20 19 20 18 17 17 19 18 17 17 16 15 14 12 12 11 10 8 6 6 3 1 -1 -5 -9 -10
30 29 30 31 30 30 29 28 27 26 26 21 18 19 15 19 19 19 18 17 19 16 16 16 17 17 17 17 16 15 14 12 11 10 8 8 5 3 -1 -7 -8 -8 -9 -11
30 29 30 29 30 30 29 28 26 26 26 25 22 19 22 21 20 19 18 16 16 16 15 15 15 16 16 16 14 14 13 11 11 10 7 5 3 2 -1 -3 -6 -9 -13 -15

GFSNGP_sfc_temp_147.txt.gz
Temp
39 41 41 38 37 38 36 36 28 33 35 40 46 47 48 49 47 45 45 42 41 41 40 41 40 39 37 36 36 34 31 30 29 29 29 29 28 27 27 26 26 26 26 27
34 39 40 37 38 38 40 39 37 36 34 47 49 48 48 47 45 43 43 42 42 41 40 38 36 35 35 33 32 31 29 26 27 28 27 25 25 24 24 24 22 20 21 23
28 34 34 29 34 38 40 42 41 31 40 45 43 45 44 43 43 43 42 41 41 40 38 37 35 35 32 31 30 28 28 27 24 23 23 20 24 23 19 15 17 18 12 15
27 28 19 34 41 41 38 40 42 42 42 44 45 42 38 37 36 39 42 40 39 38 35 34 35 34 31 31 28 28 24 23 26 23 19 22 19 17 15 13 7 4 9 10
23 24 29 33 37 34 35 34 42 41 42 40 37 36 37 37 37 35 33 30 31 33 33 33 32 31 30 29 28 26 22 21 22 22 21 23 21 17 13 12 10 6 4 10
24 19 12 27 41 45 41 27 40 41 40 37 35 27 30 34 34 31 26 26 28 32 33 31 30 30 28 25 25 24 24 24 24 23 22 21 20 18 14 11 10 11 13 8
24 20 27 35 41 44 26 29 38 40 39 37 33 35 32 32 31 30 28 31 32 32 31 30 30 29 26 25 22 24 25 26 26 27 24 22 22 22 20 12 10 8 8 10
18 13 15 40 38 32 34 37 41 41 40 38 33 32 32 31 29 30 29 29 31 29 28 29 29 28 25 24 24 26 27 26 25 24 28 25 22 22 20 12 8 2 4 10
26 25 35 37 36 39 40 38 40 40 39 37 33 32 31 29 29 29 29 30 31 29 28 28 29 29 25 24 28 28 28 26 24 25 25 23 21 19 17 14 12 10 9 7
30 32 35 37 37 37 38 38 40 39 36 33 31 32 31 30 30 30 29 26 29 28 27 27 29 30 28 29 30 29 27 26 25 23 22 22 22 21 17 13 13 15 13 9
27 32 34 37 36 39 39 41 40 37 35 33 33 32 31 30 30 31 30 30 30 29 29 28 29 28 29 30 29 28 28 26 25 24 21 19 17 15 17 7 15 11 8 13
25 33 34 35 39 41 40 40 40 35 28 29 33 31 31 31 31 31 30 30 29 30 29 28 28 28 29 30 30 28 27 26 24 22 20 19 19 17 24 23 25 25 24 20
37 38 37 38 40 42 40 41 39 35 32 29 29 31 33 31 31 32 30 29 28 29 29 29 28 28 28 28 28 27 25 24 22 21 18 17 17 18 15 21 27 25 26 26
40 37 33 36 35 40 39 38 38 35 34 34 33 34 33 31 32 31 30 29 30 30 29 29 28 28 29 29 29 26 25 24 21 19 18 18 15 16 15 14 11 12 20 23
36 37 37 37 36 37 36 34 32 30 31 31 33 32 32 30 31 31 31 31 32 30 30 29 29 27 29 30 28 25 26 23 22 21 20 19 20 19 19 16 14 12 13 13
40 37 35 33 35 34 32 31 30 28 29 27 31 31 31 33 32 31 31 30 28 26 28 27 26 25 28 29 27 26 25 24 24 22 22 21 20 19 18 16 13 13 11 9
32 31 32 31 31 31 33 33 32 30 29 31 31 31 30 30 30 30 28 29 28 26 25 25 23 24 26 27 28 26 24 23 24 23 23 22 22 20 18 15 13 12 10 8
40 37 37 35 33 31 30 30 30 30 31 32 29 29 28 28 27 25 24 24 24 22 21 23 24 24 24 26 27 25 24 24 24 23 22 21 21 20 17 15 14 12 10 7
37 36 35 34 33 32 31 30 30 30 27 27 25 24 21 19 20 19 22 23 22 21 18 22 25 23 23 24 26 25 24 23 23 22 21 19 19 18 15 14 12 10 10 7
33 33 32 31 32 32 28 27 28 25 22 20 18 19 17 15 17 18 20 20 23 23 22 23 24 24 24 24 24 24 23 21 21 19 19 18 17 15 14 13 11 9 6 5
31 31 31 31 27 27 31 30 28 27 26 24 21 19 18 13 15 17 19 20 17 21 24 24 24 23 25 23 23 21 20 19 17 17 16 15 13 13 12 11 10 7 4 1
31 31 30 29 30 28 29 30 29 27 24 17 17 16 17 16 16 16 16 22 22 21 23 23 22 21 22 23 22 19 19 19 17 17 16 14 12 11 10 9 7 4 3 -1
30 30 29 29 29 28 28 27 27 26 24 17 18 18 20 21 22 20 19 22 22 21 23 22 20 19 19 20 18 18 18 17 17 17 16 14 12 9 8 7 6 4 2 -1
27 29 28 29 28 28 26 26 26 23 15 17 15 16 21 21 18 23 21 20 20 22 20 18 19 19 18 17 17 16 16 16 16 16 13 12 11 9 8 7 6 5 3 1
26 29 28 28 28 28 28 28 27 26 24 24 22 22 24 23 20 17 17 19 20 18 16 16 18 17 17 16 16 15 16 15 14 13 12 10 9 9 8 7 6 4 2 1
30 29 30 31 30 29 28 28 26 26 25 21 17 17 12 17 16 17 15 15 16 13 14 15 17 17 16 16 16 15 14 13 11 11 11 10 8 8 6 5 3 1 -2 -4
30 29 29 29 29 29 28 28 26 25 25 23 16 14 16 14 12 13 11 12 12 11 11 12 16 17 17 16 16 14 13 11 11 10 9 7 6 4 3 1 0 1 -0 -2

GFSNGP_sfc_temp_150.txt.gz
Temp
37 40 39 35 34 38 31 31 26 30 30 35 41 44 43 47 49 50 47 42 41 40 39 40 40 40 37 36 36 36 33 32 29 29 29 28 27 27 27 27 26 26 27 27
30 37 37 33 33 35 38 38 34 35 34 43 46 47 45 46 48 45 44 44 42 41 41 40 39 36 35 35 33 33 31 29 29 29 27 24 24 23 24 23 22 21 23 25
26 33 34 27 32 34 38 41 39 29 38 44 42 43 43 45 45 44 42 41 41 40 40 40 37 35 34 33 33 31 30 28 25 23 22 19 23 22 18 15 19 18 12 17
28 28 20 33 39 40 38 39 40 41 41 43 44 42 38 39 39 39 39 40 39 38 36 36 36 36 33 32 30 29 26 24 26 23 19 20 17 14 13 10 7 8 12 14
24 25 29 33 37 34 33 34 40 39 42 43 39 36 37 38 37 34 34 31 34 34 34 34 34 33 31 29 28 26 23 22 22 22 21 20 17 15 13 10 10 7 3 12
24 20 14 31 39 43 40 25 39 39 39 38 35 28 33 36 34 31 29 29 32 33 34 33 32 31 29 26 26 23 24 22 23 23 22 20 18 15 9 7 6 8 11 7
25 21 27 35 41 42 26 29 38 39 38 36 32 35 33 31 30 29 29 31 33 33 32 31 31 30 27 26 25 23 23 24 25 26 24 21 18 16 12 9 8 4 6 5
19 12 15 38 37 32 34 34 37 37 38 36 35 33 32 32 30 30 30 32 32 30 29 30 30 28 26 25 23 25 25 25 24 25 26 24 21 19 13 8 7 -1 3 7
26 24 34 35 34 36 37 36 36 36 37 37 33 33 32 30 30 30 30 30 31 30 28 29 29 28 26 25 27 27 27 25 25 26 26 24 22 18 16 12 10 5 8 4
30 32 33 35 37 37 37 36 37 37 36 34 31 33 32 30 30 29 29 28 28 29 28 27 29 29 28 28 29 28 27 26 26 24 23 24 23 20 16 12 10 14 12 8
27 32 32 35 36 37 37 38 38 37 35 32 29 32 32 31 30 30 29 26 30 29 29 28 28 28 29 29 29 28 28 27 26 25 23 21 20 19 17 6 14 10 4 8
25 33 34 33 36 38 36 37 39 37 31 31 32 31 32 31 32 31 30 30 30 30 29 28 28 27 28 30 30 28 26 26 24 22 21 19 18 16 23 22 25 25 23 18
37 36 36 35 37 39 37 37 38 37 35 31 30 33 32 31 32 32 31 30 30 29 29 28 27 27 28 28 28 26 25 23 22 21 19 17 17 16 13 21 26 25 25 25
35 35 35 34 33 37 37 38 38 35 34 32 33 34 33 32 32 31 30 31 31 30 29 28 27 26 28 28 28 26 25 23 21 19 18 18 16 16 15 14 10 11 21 22
35 37 39 35 35 36 35 34 32 31 30 30 33 33 32 31 31 31 31 31 30 29 29 28 27 26 28 29 27 25 25 22 20 19 19 19 19 18 18 16 14 12 13 14
36 35 33 33 34 33 33 31 31 29 29 27 29 31 32 32 30 31 30 30 28 27 28 27 26 27 28 28 26 26 25 23 22 20 19 19 19 18 17 16 14 12 11 10
32 31 31 30 31 32 31 33 33 33 30 29 29 30 32 32 30 30 29 29 28 27 27 26 25 26 27 27 27 26 24 23 23 22 20 20 19 18 18 16 14 13 11 9
37 37 35 35 33 32 30 32 33 32 30 33 32 28 29 28 27 26 26 26 25 24 25 25 25 25 26 26 27 25 24 23 23 22 22 21 21 21 19 16 15 13 11 9
35 34 33 34 34 32 32 31 31 29 28 30 29 28 27 24 22 20 23 23 21 21 19 23 25 24 24 25 25 25 24 23 23 23 22 19 19 18 16 15 14 12 10 8
32 33 33 32 31 30 28 27 28 28 25 23 18 19 17 14 17 18 19 21 23 22 22 23 24 24 24 25 25 24 23 22 21 20 19 18 17 16 14 14 12 10 8 7
29 29 29 28 25 26 28 30 29 27 24 21 20 18 17 12 14 15 18 19 15 20 23 23 23 21 22 21 22 21 20 19 18 17 16 14 14 14 12 11 10 8 7 6
25 26 25 25 26 25 28 30 30 27 26 24 17 15 14 13 11 13 11 20 19 16 21 22 20 20 19 18 19 16 16 17 16 15 14 13 14 12 11 10 9 8 7 4
30 30 29 27 27 28 28 28 28 27 24 19 16 17 19 20 20 20 18 20 21 17 21 18 18 19 19 18 16 15 16 14 15 15 14 14 13 12 11 10 9 7 5 3
30 29 28 28 28 28 26 26 27 26 23 18 13 17 21 20 17 21 21 20 19 20 18 17 18 19 19 17 17 16 16 15 14 15 15 14 13 11 10 10 8 7 6 5
28 29 28 28 29 28 28 27 26 25 24 23 22 21 23 23 19 18 18 20 20 18 16 18 19 17 17 16 15 15 15 14 14 14 14 12 10 9 9 9 8 7 5 5
29 29 30 31 30 29 28 28 26 25 25 22 19 16 16 19 18 18 15 18 18 14 16 14 16 17 16 16 15 14 14 14 14 13 12 10 9 9 8 7 7 7 5 4
30 29 29 28 29 29 28 28 26 25 25 24 22 15 17 16 12 12 9 10 11 10 11 14 16 16 16 15 15 14 14 13 12 11 10 10 9 8 7 7 6 5 2 1

GFSNGP_sfc_temp_156.txt.gz
Temp
39 38 38 37 37 37 33 35 30 40 36 45 50 51 52 54 55 56 56 58 57 56 54 53 51 51 52 51 49 48 48 43 39 39 41 43 42 41 42 42 43 43 41 41
38 43 41 38 42 43 43 43 40 41 41 51 55 56 55 55 54 52 54 56 59 60 59 56 54 53 52 49 47 46 41 37 34 37 38 39 40 39 40 40 39 38 39 39
32 42 40 34 42 45 46 48 45 38 49 56 54 53 55 57 57 56 58 57 56 54 53 53 52 51 47 45 45 41 37 34 32 32 32 32 36 38 35 33 35 32 31 32
34 38 23 44 53 51 48 50 51 50 52 55 56 58 58 58 57 56 54 53 51 52 52 51 51 49 47 46 42 36 33 32 32 31 30 32 31 29 30 30 30 30 30 30
30 33 40 45 48 43 42 44 53 50 53 55 57 54 56 54 52 49 45 37 39 44 49 48 47 45 41 38 36 34 31 31 31 30 29 29 27 28 30 29 29 29 29 29
36 29 25 42 51 54 52 36 54 54 52 53 52 43 49 50 48 45 41 37 36 40 43 42 40 41 34 33 32 31 31 31 30 29 28 26 28 29 30 30 29 30 28 29
34 31 38 51 54 54 33 40 52 53 52 50 48 51 46 41 37 39 37 37 41 37 35 35 38 37 33 32 31 32 31 29 29 29 28 29 29 29 29 29 29 29 28 28
35 30 27 53 50 41 49 51 53 53 53 51 50 41 34 35 35 37 39 41 43 39 35 34 35 34 32 31 32 31 30 30 29 29 31 30 29 28 29 28 27 28 28 28
41 40 50 52 52 55 56 54 53 54 55 53 44 35 33 35 35 36 40 43 43 41 37 36 36 35 31 30 31 31 32 30 29 31 31 30 29 28 29 29 29 28 28 28
43 48 48 50 54 56 56 55 57 56 55 52 35 35 34 35 36 38 41 41 42 38 35 33 34 34 32 31 31 32 31 32 33 32 30 31 31 31 30 30 29 30 29 29
45 49 48 50 53 55 55 55 55 55 53 49 45 41 40 38 39 43 42 41 40 37 35 33 33 33 33 34 33 33 32 33 34 33 31 30 31 31 31 31 32 30 30 30
40 50 48 51 57 56 53 53 54 54 47 47 52 46 47 38 40 42 40 40 40 38 37 36 35 35 36 36 35 34 32 33 33 32 31 30 29 28 28 28 26 27 28 30
50 56 54 55 57 57 55 55 55 55 54 50 48 50 49 41 41 40 42 40 40 40 39 36 35 34 35 33 33 31 31 31 31 30 30 28 28 27 24 25 27 26 26 26
54 54 47 50 51 55 55 56 55 55 54 53 52 50 49 47 44 43 40 41 42 39 37 35 34 33 33 34 33 31 31 30 30 30 29 29 29 29 28 26 24 25 26 27
50 52 54 56 54 54 55 54 52 50 51 49 50 49 48 45 43 42 41 41 40 37 34 34 34 33 34 34 32 30 30 29 30 30 30 30 30 30 29 29 29 27 26 25
50 51 52 49 51 52 52 51 49 47 48 42 43 44 46 46 42 40 40 40 34 32 33 33 33 32 32 32 31 30 30 29 30 30 29 30 29 29 29 29 28 27 26 25
47 45 47 48 49 49 49 50 50 48 47 46 44 44 43 38 37 38 38 36 34 33 33 32 31 31 31 31 32 31 31 29 30 31 30 30 30 29 29 29 28 27 27 27
52 52 52 51 49 47 46 47 47 48 47 46 41 35 34 33 35 33 32 32 32 31 31 32 31 31 31 31 32 33 31 31 31 31 31 30 30 31 29 29 28 27 27 25
49 48 48 47 47 47 46 45 44 42 37 34 33 32 33 33 33 32 31 31 30 30 30 31 30 31 32 32 34 34 34 32 32 32 31 30 29 30 29 28 28 27 27 24
44 45 45 44 44 42 38 34 34 33 34 33 33 32 31 31 32 30 31 30 33 35 32 32 32 33 34 33 32 37 35 32 33 32 30 31 29 28 28 27 27 27 26 24
36 35 33 33 32 33 33 33 33 32 33 33 32 32 32 30 31 31 30 31 31 32 35 32 34 34 35 35 34 34 33 32 32 32 30 30 29 29 28 28 27 27 26 25
32 32 31 31 32 31 32 33 33 32 32 32 32 31 29 29 29 31 31 36 35 31 34 34 35 34 35 32 33 31 31 31 31 31 30 30 29 28 28 28 28 27 26 25
32 32 31 32 31 31 33 33 32 32 31 30 29 29 32 33 34 31 30 35 36 32 36 36 34 31 30 32 32 31 30 30 30 30 30 30 30 30 29 29 28 27 25 25
34 34 33 33 33 35 33 34 34 33 32 31 31 32 34 32 32 38 39 34 33 29 34 32 29 28 28 31 31 31 31 30 30 30 31 30 30 30 29 28 27 26 25 24
36 34 35 35 36 36 35 34 32 31 31 32 32 32 35 38 34 34 34 32 29 31 32 29 28 28 30 31 31 30 31 31 31 30 30 29 29 29 28 27 26 26 25 24
35 36 37 37 37 37 35 34 34 33 33 32 32 32 31 34 34 34 32 32 31 32 32 29 29 29 30 30 30 30 30 31 30 29 29 29 29 29 28 27 26 25 24 24
35 34 34 34 36 36 36 35 34 32 32 33 32 31 31 31 31 32 31 31 31 30 31 30 30 29 30 30 29 30 30 30 29 29 29 29 29 28 27 26 25 25 24 23

GFSNGP_sfc_temp_162.txt.gz
Temp
47 48 41 40 39 39 37 38 31 39 41 47 51 52 54 57 59 59 60 60 61 59 58 57 57 53 50 47 46 46 44 42 40 40 41 41 40 41 42 43 43 43 41 40
42 48 47 40 45 46 45 45 43 44 42 54 57 59 58 59 60 59 60 62 62 63 62 57 56 56 53 50 48 46 43 41 39 39 39 36 35 35 39 41 39 39 38 37
34 44 44 36 43 47 48 50 48 40 48 56 56 57 58 59 60 60 61 61 61 59 60 59 58 56 53 50 48 47 43 37 35 34 33 33 35 37 36 36 35 32 31 30
34 39 25 43 55 53 49 53 55 55 56 59 60 61 62 63 61 59 56 57 57 55 56 57 57 57 53 52 48 43 35 34 34 34 32 33 32 32 32 32 32 30 30 30
31 32 39 46 52 49 48 47 56 55 57 59 61 61 59 59 58 54 50 38 45 49 51 53 53 51 47 45 41 36 33 33 33 33 32 32 31 30 31 31 30 29 28 28
33 28 25 41 54 60 58 34 52 57 55 56 57 44 47 54 55 51 48 41 35 37 47 50 47 47 40 36 35 33 33 33 33 32 32 30 30 30 31 31 30 30 29 30
32 31 38 52 58 59 37 41 58 59 58 57 52 51 51 51 47 50 42 43 49 38 35 39 48 45 37 34 34 34 33 33 32 32 31 30 30 31 31 30 29 28 28 28
35 30 27 56 55 40 46 55 58 58 58 56 47 39 36 37 40 46 49 51 50 47 39 36 38 37 35 34 33 33 32 31 30 29 30 30 30 30 30 29 28 27 26 26
39 38 52 57 55 59 59 57 58 58 59 58 45 36 36 34 37 42 49 52 54 52 41 39 39 37 33 33 33 32 31 30 29 29 30 30 29 28 28 29 28 27 26 25
39 43 43 49 54 60 61 59 61 61 60 57 35 35 35 37 39 43 48 51 54 50 41 38 39 36 35 33 33 31 30 29 29 28 29 29 30 30 30 29 28 28 27 26
37 44 43 48 45 50 60 61 61 62 61 55 50 45 43 42 45 48 51 52 52 49 45 41 40 37 34 33 32 31 30 29 29 30 29 29 30 29 30 32 32 30 28 29
33 43 39 49 58 60 58 58 60 59 56 56 58 52 52 49 48 51 51 53 50 49 47 43 39 35 34 34 33 31 30 30 30 30 29 30 29 27 32 31 31 32 33 28
43 45 44 44 55 58 59 60 61 60 59 56 57 56 57 53 50 47 52 52 50 48 46 43 38 34 34 33 32 32 31 31 30 30 29 29 28 25 21 26 30 30 29 28
52 51 45 49 51 58 59 61 59 61 61 59 59 58 56 55 55 50 50 52 51 49 45 41 37 34 34 34 33 32 32 32 31 30 30 29 28 27 25 23 21 21 28 28
52 54 53 56 57 57 59 60 57 56 57 56 58 57 57 55 53 51 52 52 50 47 43 38 36 34 35 34 33 32 32 32 31 31 30 30 29 27 26 25 24 22 23 25
51 52 53 51 53 55 56 56 54 51 51 46 48 50 52 54 54 52 51 48 41 39 40 35 34 33 34 34 33 32 32 31 31 30 29 29 29 27 27 26 26 24 22 22
47 45 48 48 51 53 54 55 56 55 52 52 50 51 53 49 47 46 43 40 34 34 34 33 33 32 33 33 33 32 32 31 30 30 29 29 29 28 28 28 27 25 24 24
53 53 53 53 51 49 48 50 51 52 49 52 45 39 35 36 39 35 34 33 32 32 32 33 33 32 32 32 33 32 31 30 30 29 30 29 29 30 29 28 28 27 26 24
52 51 51 52 52 50 49 47 46 42 37 35 35 35 35 34 34 34 33 32 32 31 32 32 31 32 32 32 33 33 32 30 31 30 30 29 29 29 28 28 27 27 26 22
47 46 45 44 39 37 39 34 34 34 35 34 35 34 33 33 33 32 33 32 33 34 32 32 32 33 33 32 32 33 32 30 30 30 29 29 28 28 28 26 27 27 26 23
36 35 32 31 32 32 32 34 34 34 34 34 33 33 33 33 33 33 32 31 33 33 34 32 32 32 33 33 32 32 32 30 30 30 29 29 29 29 29 28 27 27 28 26
34 33 31 31 31 32 33 34 34 33 33 33 33 33 33 31 32 32 33 34 34 33 32 32 33 33 33 32 33 33 32 31 31 31 30 29 29 29 29 29 28 28 28 27
33 33 33 32 33 33 33 33 33 33 33 33 33 33 33 32 32 30 30 35 35 33 33 32 34 33 33 32 32 33 32 31 31 31 31 30 30 30 29 28 28 28 28 28
34 34 33 33 33 33 32 32 33 32 32 32 32 33 34 32 33 35 36 35 34 32 33 33 33 33 33 32 33 32 32 32 32 32 31 31 31 30 30 30 29 29 29 28
37 36 36 35 37 36 36 35 34 33 33 34 34 34 35 37 34 35 35 34 33 33 33 33 33 32 32 32 32 32 32 32 32 32 32 31 30 30 30 30 29 29 29 27
38 38 39 39 39 39 39 39 37 35 35 33 33 34 34 35 35 34 34 33 33 34 32 32 32 32 32 32 32 32 31 31 31 31 31 31 31 30 29 29 29 28 28 27
39 36 38 38 39 38 37 37 36 34 34 34 33 33 33 33 33 32 32 32 32 32 32 31 31 31 31 32 31 31 31 31 32 31 31 31 31 30 30 30 29 28 27 27